Regional Weather Roundup
Issued by NWS Memphis, TN

Home | Current Version | Previous Version | Text Only | Print | Product List | Glossary On
Versions: 1 2 3 4 5 6 7 8 9 10 11 12 13 14 15 16 17 18 19 20 21 22 23 24 25 26 27 28 29 30 31 32 33 34 35 36 37 38 39 40 41 42 43 44 45 46 47 48 49 50
000
ASUS44 KMEG 251410
RWRMEG
MEMPHIS CWA HOURLY WEATHER ROUNDUP
NATIONAL WEATHER SERVICE MEMPHIS TN
800 AM CST SUN FEB 25 2018

...WEST TENNESSEE...

CITY           SKY/WX    TMP DP  RH WIND       PRES   REMARKS
MEMPHIS INTL   CLOUDY    47  40  76 CALM      30.13R
NWS MEMPHIS      N/A     46 N/A N/A MISG        N/A
JACKSON        FAIR      48  40  73 NW7       30.11R
COVINGTON      SUNNY     46  37  71 N7        30.13R
SOMERVILLE     SUNNY     46  39  76 NW6       30.10S
BOLIVAR        SUNNY     48  41  76 NW5       30.09S
LEXINGTON      SUNNY     48  43  81 NW5       30.10S
SELMER         SUNNY     48  45  87 N5        30.09R
SAVANNAH       SUNNY     50  45  81 CALM      30.10R
DYERSBURG      FAIR      45  36  70 NW5       30.13R
UNION CITY     SUNNY     45  37  76 CALM      30.11R
PARIS          SUNNY     45  37  76 VRB3      30.10R


...EASTERN ARKANSAS...

CITY           SKY/WX    TMP DP  RH WIND       PRES   REMARKS
JONESBORO      FAIR      42  38  85 NW3       30.13R
WEST MEMPHIS   FAIR      45  39  79 N5        30.13R
BATESVILLE     PTSUNNY   40  37  89 S3        30.15R
NEWPORT          N/A     42  38  85 CALM      30.14R
WALNUT RIDGE   FAIR      42  34  73 CALM      30.14R
BLYTHEVILLE    FAIR      45  38  76 N5        30.13R
SEARCY         FAIR      41  41 100 CALM      30.15R
STUTTGART      FAIR      46  38  73 E7        30.14R
PINE BLUFF     FAIR      47  39  74 NE7       30.13R
MONTICELLO     FAIR      50  46  86 NE3       30.11F


...NORTH MISSISSIPPI...

CITY           SKY/WX    TMP DP  RH WIND       PRES   REMARKS
TUPELO         PTSUNNY   54  50  86 NW5       30.12R
BATESVILLE       N/A    N/A N/A N/A MISG        N/A
OLIVE BRANCH   CLOUDY    45  45 100 N5        30.12R
TUNICA           N/A     45  37  76 N6        30.16R
CLARKSDALE     SUNNY     48  43  81 N7        30.14R
CORINTH        FAIR      50  45  81 N6        30.10S
GREENWOOD      CLOUDY    54  53  97 S8        30.15R
COLUMBUS       LGT RAIN  54  54 100 SW6       30.14R
STARKVILLE     RAIN      52  50  93 S6        30.15R
GOLDEN TRIANGL LGT RAIN  52  51  97 S6        30.13R


...SOUTHEAST MISSOURI...

CITY           SKY/WX    TMP DP  RH WIND       PRES   REMARKS
KENNETT        FAIR      45  39  81 CALM      30.12R
MALDEN         FAIR      43  34  70 W3        30.14R
WEST PLAINS    SUNNY     32  30  92 CALM      30.08R
POPLAR BLUFF   FAIR      42  33  70 CALM      30.11R
CAPE GIRARDEAU FAIR      42  34  73 W7        30.10R


...NORTHWEST ALABAMA...

CITY           SKY/WX    TMP DP  RH WIND       PRES   REMARKS
MUSCLE SHOALS  PTSUNNY   55  51  86 VRB5      30.09F


...MIDDLE TENNESSEE...

CITY           SKY/WX    TMP DP  RH WIND       PRES   REMARKS
NASHVILLE      CLOUDY    52  43  71 NW9       30.07R
CLARKSVILLE    FAIR      47  36  65 NW9       30.09R
COLUMBIA       MOSUNNY   52  52 100 CALM      30.06S


...WESTERN KENTUCKY...

CITY           SKY/WX    TMP DP  RH WIND       PRES   REMARKS
PADUCAH        FAIR      43  35  73 CALM      30.10R
FORT CAMPBELL  FAIR      47  39  75 W7        30.08R


...CENTRAL ARKANSAS...

CITY           SKY/WX    TMP DP  RH WIND       PRES   REMARKS
LITTLE ROCK    CLOUDY    44  39  82 NE7       30.14R


SKY/WX REPORTED AS FAIR MEANS FEW OR NO CLOUDS BELOW
12 THOUSAND FEET.




USA.gov is the U.S. government's official web portal to all federal, state and local government web resources and services.